QPF
0.00 0.00 0.00 0.00 0.08 0.00 0.00 0.00 0.00 0.00 0.00 0.00 0.00 0.00 0.00 0.00 0.00 0.00 0.00 0.00 0.00 0.00 0.00 0.00 0.00 0.00 0.00 0.00 0.00 0.00 0.00 0.00 0.00 0.00 0.00 0.00 0.00 0.00 0.00 0.00 0.00 0.00 0.00 0.00 0.00 0.00 0.00 0.00 0.00 0.00 0.00 0.00 0.00 0.00 0.00 0.00 0.00 0.00 0.00 0.00 0.00 0.00 0.00
0.00 0.02 0.00 0.00 0.00 0.00 0.00 0.00 0.00 0.00 0.00 0.00 0.00 0.00 0.00 0.00 0.00 0.00 0.00 0.00 0.00 0.00 0.00 0.00 0.00 0.00 0.00 0.00 0.00 0.00 0.00 0.00 0.00 0.00 0.00 0.00 0.00 0.00 0.00 0.00 0.00 0.00 0.00 0.00 0.00 0.00 0.00 0.00 0.00 0.00 0.00 0.00 0.00 0.00 0.00 0.00 0.00 0.00 0.00 0.00 0.00 0.00 0.00
0.00 0.00 0.00 0.04 0.00 0.00 0.00 0.00 0.00 0.00 0.01 0.00 0.00 0.00 0.00 0.00 0.00 0.00 0.00 0.00 0.00 0.00 0.00 0.00 0.00 0.00 0.00 0.00 0.00 0.00 0.00 0.00 0.00 0.00 0.00 0.00 0.00 0.00 0.00 0.00 0.00 0.00 0.00 0.00 0.00 0.00 0.00 0.00 0.00 0.00 0.00 0.00 0.00 0.00 0.00 0.00 0.00 0.00 0.00 0.00 0.00 0.00 0.00
0.00 0.00 0.00 0.00 0.06 0.00 0.00 0.00 0.00 0.00 0.00 0.00 0.00 0.00 0.00 0.00 0.00 0.00 0.00 0.00 0.00 0.00 0.00 0.00 0.00 0.00 0.00 0.00 0.00 0.00 0.00 0.00 0.00 0.00 0.00 0.00 0.00 0.00 0.00 0.00 0.00 0.00 0.00 0.00 0.00 0.00 0.00 0.00 0.00 0.00 0.00 0.00 0.00 0.00 0.00 0.00 0.00 0.00 0.00 0.00 0.00 0.00 0.00
0.00 0.00 0.00 0.00 0.00 0.00 0.00 0.00 0.00 0.00 0.00 0.00 0.00 0.00 0.00 0.00 0.00 0.00 0.00 0.00 0.00 0.00 0.00 0.00 0.00 0.00 0.00 0.00 0.00 0.00 0.00 0.00 0.00 0.00 0.00 0.00 0.00 0.00 0.00 0.00 0.00 0.00 0.00 0.00 0.00 0.00 0.00 0.00 0.00 0.00 0.00 0.00 0.00 0.00 0.00 0.00 0.00 0.00 0.00 0.00 0.00 0.00 0.00
0.00 0.00 0.00 0.00 0.00 0.00 0.01 0.00 0.00 0.00 0.00 0.00 0.02 0.00 0.00 0.00 0.00 0.00 0.01 0.00 0.00 0.00 0.00 0.00 0.00 0.00 0.00 0.00 0.00 0.00 0.00 0.00 0.00 0.00 0.00 0.00 0.00 0.00 0.00 0.00 0.00 0.00 0.00 0.00 0.00 0.00 0.00 0.00 0.00 0.00 0.00 0.00 0.00 0.00 0.00 0.00 0.00 0.00 0.00 0.00 0.00 0.00 0.00
0.00 0.00 0.00 0.00 0.00 0.00 0.00 0.01 0.01 0.01 0.00 0.02 0.01 0.00 0.00 0.00 0.00 0.00 0.02 0.01 0.01 0.00 0.00 0.00 0.00 0.00 0.00 0.00 0.00 0.00 0.00 0.00 0.00 0.00 0.00 0.00 0.00 0.00 0.00 0.00 0.00 0.00 0.00 0.00 0.00 0.00 0.00 0.00 0.00 0.00 0.00 0.00 0.00 0.00 0.00 0.00 0.00 0.00 0.00 0.00 0.00 0.00 0.00
0.00 0.00 0.00 0.00 0.00 0.00 0.00 0.00 0.00 0.00 0.01 0.03 0.02 0.00 0.00 0.01 0.00 0.00 0.00 0.00 0.02 0.01 0.04 0.02 0.02 0.01 0.00 0.00 0.00 0.00 0.00 0.00 0.00 0.00 0.00 0.00 0.00 0.00 0.00 0.00 0.00 0.00 0.00 0.00 0.00 0.00 0.00 0.00 0.00 0.00 0.00 0.00 0.00 0.00 0.00 0.00 0.00 0.00 0.00 0.00 0.00 0.00 0.00
0.00 0.00 0.00 0.00 0.00 0.00 0.00 0.00 0.01 0.01 0.00 0.00 0.00 0.00 0.00 0.00 0.00 0.00 0.02 0.10 0.04 0.00 0.00 0.01 0.01 0.01 0.00 0.00 0.00 0.00 0.00 0.00 0.00 0.00 0.00 0.00 0.00 0.00 0.00 0.00 0.00 0.00 0.00 0.00 0.00 0.00 0.00 0.00 0.00 0.00 0.00 0.00 0.00 0.00 0.00 0.00 0.00 0.00 0.00 0.00 0.00 0.00 0.00
0.00 0.00 0.00 0.00 0.00 0.00 0.00 0.00 0.00 0.02 0.02 0.00 0.00 0.05 0.00 0.01 0.00 0.00 0.00 0.00 0.00 0.00 0.01 0.01 0.00 0.00 0.00 0.00 0.00 0.00 0.00 0.00 0.00 0.00 0.00 0.00 0.00 0.00 0.00 0.00 0.00 0.00 0.00 0.00 0.00 0.00 0.00 0.00 0.00 0.00 0.00 0.00 0.00 0.00 0.00 0.00 0.00 0.00 0.00 0.00 0.00 0.00 0.00
0.00 0.00 0.00 0.00 0.00 0.00 0.00 0.00 0.00 0.00 0.00 0.00 0.01 0.01 0.03 0.04 0.00 0.00 0.00 0.00 0.00 0.00 0.00 0.01 0.00 0.00 0.00 0.00 0.00 0.00 0.00 0.00 0.00 0.00 0.00 0.00 0.00 0.00 0.00 0.00 0.00 0.00 0.00 0.00 0.00 0.00 0.00 0.00 0.00 0.00 0.00 0.00 0.00 0.00 0.00 0.00 0.00 0.00 0.00 0.00 0.00 0.00 0.00
0.00 0.00 0.00 0.00 0.00 0.00 0.00 0.00 0.00 0.00 0.00 0.02 0.01 0.00 0.00 0.03 0.04 0.00 0.00 0.00 0.00 0.00 0.00 0.00 0.00 0.00 0.00 0.01 0.00 0.00 0.00 0.00 0.00 0.00 0.00 0.00 0.00 0.00 0.00 0.00 0.00 0.00 0.00 0.00 0.00 0.00 0.00 0.00 0.00 0.00 0.00 0.00 0.00 0.00 0.00 0.00 0.00 0.00 0.00 0.00 0.00 0.00 0.00
0.00 0.00 0.00 0.00 0.00 0.00 0.00 0.00 0.00 0.00 0.00 0.00 0.00 0.00 0.00 0.00 0.03 0.05 0.01 0.00 0.00 0.00 0.00 0.00 0.00 0.00 0.00 0.00 0.00 0.00 0.00 0.00 0.00 0.00 0.00 0.00 0.00 0.00 0.00 0.00 0.00 0.00 0.00 0.00 0.00 0.00 0.00 0.00 0.00 0.00 0.00 0.00 0.00 0.00 0.00 0.00 0.00 0.00 0.00 0.00 0.00 0.00 0.00
0.00 0.00 0.00 0.00 0.00 0.00 0.00 0.00 0.00 0.00 0.00 0.00 0.00 0.00 0.00 0.01 0.02 0.01 0.06 0.01 0.00 0.00 0.00 0.00 0.00 0.00 0.00 0.00 0.00 0.00 0.00 0.00 0.00 0.00 0.00 0.00 0.00 0.00 0.00 0.00 0.00 0.00 0.00 0.00 0.00 0.00 0.00 0.00 0.00 0.00 0.00 0.00 0.00 0.00 0.00 0.00 0.00 0.00 0.00 0.00 0.00 0.00 0.00
0.00 0.00 0.00 0.00 0.00 0.00 0.01 0.01 0.00 0.00 0.00 0.00 0.00 0.00 0.00 0.00 0.02 0.03 0.01 0.04 0.01 0.00 0.00 0.00 0.00 0.00 0.00 0.00 0.00 0.00 0.00 0.00 0.00 0.00 0.00 0.00 0.00 0.00 0.00 0.00 0.00 0.00 0.00 0.00 0.00 0.00 0.00 0.00 0.00 0.00 0.00 0.00 0.00 0.00 0.00 0.00 0.00 0.00 0.00 0.00 0.00 0.00 0.00
0.00 0.00 0.00 0.00 0.00 0.00 0.00 0.00 0.01 0.00 0.00 0.00 0.00 0.00 0.00 0.00 0.00 0.02 0.02 0.01 0.01 0.00 0.00 0.00 0.00 0.00 0.00 0.00 0.00 0.00 0.00 0.00 0.00 0.00 0.00 0.00 0.00 0.00 0.00 0.00 0.00 0.00 0.00 0.00 0.00 0.00 0.00 0.00 0.00 0.00 0.00 0.00 0.00 0.00 0.00 0.00 0.00 0.00 0.00 0.00 0.00 0.00 0.00
0.00 0.00 0.00 0.00 0.00 0.00 0.00 0.00 0.00 0.00 0.00 0.00 0.00 0.00 0.00 0.00 0.00 0.01 0.00 0.01 0.03 0.03 0.03 0.00 0.00 0.00 0.00 0.02 0.01 0.00 0.00 0.00 0.00 0.00 0.00 0.00 0.00 0.00 0.00 0.00 0.00 0.00 0.00 0.00 0.00 0.00 0.00 0.00 0.00 0.00 0.00 0.00 0.00 0.00 0.00 0.00 0.00 0.00 0.00 0.00 0.00 0.00 0.00
0.00 0.00 0.00 0.00 0.00 0.00 0.00 0.00 0.00 0.00 0.00 0.00 0.00 0.00 0.00 0.00 0.00 0.00 0.00 0.00 0.00 0.02 0.06 0.03 0.00 0.01 0.02 0.02 0.02 0.00 0.00 0.00 0.00 0.00 0.00 0.00 0.00 0.00 0.00 0.00 0.00 0.00 0.00 0.00 0.00 0.00 0.00 0.00 0.00 0.00 0.00 0.00 0.00 0.00 0.00 0.00 0.00 0.00 0.00 0.00 0.00 0.00 0.00
0.00 0.00 0.00 0.00 0.00 0.00 0.00 0.00 0.00 0.00 0.00 0.00 0.01 0.00 0.00 0.00 0.00 0.00 0.00 0.01 0.04 0.00 0.00 0.01 0.02 0.05 0.04 0.07 0.01 0.04 0.00 0.00 0.00 0.00 0.00 0.00 0.00 0.00 0.00 0.00 0.00 0.00 0.00 0.00 0.00 0.00 0.00 0.00 0.00 0.00 0.00 0.00 0.00 0.00 0.00 0.00 0.00 0.00 0.00 0.00 0.00 0.00 0.00
0.00 0.00 0.00 0.00 0.00 0.00 0.00 0.00 0.00 0.00 0.00 0.00 0.00 0.00 0.00 0.00 0.00 0.00 0.00 0.00 0.00 0.03 0.04 0.01 0.12 0.22 0.27 0.46 0.13 0.03 0.09 0.04 0.02 0.00 0.00 0.00 0.00 0.00 0.00 0.00 0.00 0.00 0.00 0.00 0.00 0.00 0.00 0.00 0.00 0.00 0.00 0.00 0.00 0.00 0.00 0.00 0.00 0.00 0.00 0.00 0.00 0.00 0.00
0.00 0.00 0.00 0.00 0.00 0.00 0.00 0.00 0.00 0.00 0.00 0.00 0.00 0.00 0.00 0.00 0.00 0.00 0.00 0.00 0.00 0.00 0.02 0.08 0.23 0.85 0.34 0.06 0.03 0.02 0.01 0.02 0.04 0.03 0.02 0.00 0.00 0.00 0.00 0.00 0.00 0.00 0.00 0.00 0.00 0.00 0.00 0.00 0.00 0.00 0.00 0.00 0.00 0.00 0.00 0.00 0.00 0.00 0.00 0.00 0.00 0.00 0.00
0.00 0.00 0.00 0.00 0.00 0.00 0.00 0.00 0.00 0.00 0.00 0.01 0.00 0.01 0.00 0.00 0.00 0.00 0.00 0.00 0.02 0.00 0.00 0.00 0.08 0.22 0.05 0.01 0.01 0.01 0.02 0.01 0.01 0.03 0.02 0.00 0.00 0.00 0.00 0.00 0.01 0.00 0.00 0.00 0.00 0.00 0.00 0.00 0.00 0.00 0.00 0.00 0.00 0.00 0.00 0.00 0.00 0.00 0.00 0.00 0.00 0.00 0.00
0.00 0.00 0.00 0.00 0.00 0.00 0.00 0.00 0.00 0.00 0.00 0.00 0.00 0.00 0.00 0.00 0.00 0.00 0.00 0.00 0.00 0.01 0.00 0.00 0.06 0.00 0.01 0.02 0.04 0.07 0.04 0.04 0.08 0.03 0.02 0.03 0.01 0.01 0.01 0.01 0.01 0.01 0.00 0.00 0.02 0.00 0.00 0.00 0.00 0.00 0.00 0.00 0.00 0.00 0.00 0.00 0.00 0.00 0.00 0.00 0.00 0.00 0.00
0.00 0.00 0.00 0.00 0.00 0.00 0.00 0.00 0.00 0.00 0.00 0.00 0.00 0.00 0.00 0.00 0.00 0.00 0.00 0.00 0.00 0.00 0.00 0.00 0.00 0.00 0.00 0.00 0.04 0.06 0.10 0.03 0.02 0.00 0.00 0.01 0.07 0.11 0.05 0.17 0.33 0.15 0.02 0.02 0.02 0.01 0.00 0.00 0.00 0.00 0.00 0.00 0.00 0.00 0.00 0.00 0.00 0.00 0.00 0.00 0.00 0.00 0.00
0.00 0.00 0.00 0.00 0.00 0.00 0.00 0.00 0.00 0.00 0.00 0.00 0.00 0.00 0.00 0.00 0.00 0.00 0.00 0.00 0.00 0.00 0.00 0.00 0.00 0.00 0.00 0.00 0.00 0.00 0.01 0.02 0.01 0.02 0.02 0.01 0.01 0.07 0.07 0.12 0.26 0.29 0.37 0.08 0.04 0.03 0.03 0.02 0.02 0.01 0.00 0.00 0.00 0.00 0.00 0.00 0.00 0.00 0.00 0.00 0.00 0.00 0.00
0.00 0.00 0.00 0.00 0.00 0.00 0.00 0.00 0.00 0.00 0.00 0.00 0.00 0.00 0.00 0.00 0.00 0.00 0.00 0.00 0.00 0.00 0.00 0.00 0.00 0.00 0.00 0.00 0.00 0.00 0.01 0.01 0.03 0.01 0.02 0.02 0.01 0.04 0.18 0.46 0.43 0.16 0.11 0.06 0.11 0.02 0.03 0.01 0.04 0.02 0.03 0.02 0.00 0.00 0.00 0.00 0.00 0.00 0.00 0.00 0.00 0.00 0.00
0.00 0.00 0.00 0.00 0.00 0.00 0.00 0.00 0.00 0.00 0.00 0.00 0.00 0.00 0.00 0.00 0.00 0.00 0.00 0.00 0.00 0.04 0.02 0.00 0.00 0.00 0.00 0.00 0.00 0.00 0.00 0.00 0.00 0.01 0.01 0.00 0.06 0.14 0.03 0.06 0.01 0.00 0.02 0.02 0.02 0.04 0.01 0.01 0.02 0.02 0.01 0.01 0.00 0.00 0.00 0.00 0.00 0.00 0.00 0.00 0.00 0.00 0.00
0.00 0.00 0.00 0.00 0.00 0.00 0.00 0.00 0.00 0.00 0.00 0.00 0.00 0.00 0.00 0.00 0.00 0.00 0.00 0.00 0.00 0.00 0.01 0.01 0.01 0.02 0.06 0.04 0.00 0.00 0.00 0.00 0.00 0.01 0.01 0.02 0.03 0.09 0.04 0.01 0.01 0.02 0.13 0.08 0.04 0.04 0.02 0.02 0.03 0.04 0.02 0.01 0.00 0.00 0.00 0.00 0.00 0.00 0.00 0.00 0.00 0.00 0.00
0.00 0.00 0.00 0.00 0.00 0.00 0.00 0.00 0.00 0.00 0.00 0.00 0.00 0.00 0.00 0.00 0.00 0.00 0.00 0.00 0.00 0.00 0.00 0.00 0.00 0.00 0.03 0.05 0.08 0.07 0.00 0.00 0.00 0.00 0.01 0.01 0.02 0.04 0.06 0.02 0.01 0.01 0.13 0.18 0.17 0.07 0.05 0.03 0.03 0.04 0.05 0.03 0.04 0.00 0.00 0.00 0.00 0.00 0.00 0.00 0.00 0.00 0.00
0.00 0.00 0.00 0.00 0.00 0.00 0.00 0.00 0.00 0.00 0.00 0.00 0.00 0.00 0.00 0.00 0.00 0.00 0.00 0.00 0.00 0.00 0.00 0.00 0.00 0.00 0.00 0.02 0.05 0.03 0.05 0.04 0.00 0.00 0.00 0.00 0.01 0.01 0.03 0.06 0.08 0.08 0.08 0.04 0.02 0.01 0.01 0.01 0.03 0.03 0.03 0.03 0.03 0.02 0.00 0.00 0.00 0.00 0.00 0.00 0.00 0.00 0.00
0.00 0.00 0.00 0.00 0.00 0.00 0.00 0.00 0.00 0.00 0.00 0.00 0.00 0.00 0.00 0.00 0.00 0.00 0.00 0.00 0.00 0.00 0.00 0.00 0.00 0.00 0.00 0.00 0.01 0.02 0.00 0.01 0.03 0.02 0.00 0.00 0.00 0.01 0.01 0.03 0.07 0.08 0.10 0.10 0.11 0.09 0.02 0.00 0.01 0.03 0.03 0.02 0.02 0.03 0.02 0.00 0.00 0.00 0.00 0.00 0.00 0.00 0.00
0.00 0.00 0.00 0.00 0.00 0.00 0.00 0.00 0.00 0.00 0.00 0.00 0.00 0.00 0.00 0.00 0.00 0.00 0.00 0.00 0.00 0.00 0.00 0.00 0.00 0.00 0.00 0.00 0.00 0.00 0.00 0.00 0.01 0.01 0.01 0.00 0.00 0.00 0.01 0.02 0.05 0.07 0.09 0.12 0.09 0.05 0.03 0.01 0.01 0.00 0.01 0.01 0.01 0.03 0.02 0.01 0.01 0.00 0.02 0.00 0.00 0.00 0.00
0.00 0.00 0.00 0.00 0.00 0.00 0.00 0.00 0.00 0.00 0.00 0.00 0.00 0.00 0.00 0.00 0.00 0.00 0.00 0.00 0.00 0.00 0.00 0.00 0.00 0.00 0.00 0.00 0.00 0.00 0.00 0.00 0.00 0.01 0.00 0.00 0.00 0.00 0.00 0.01 0.03 0.06 0.12 0.20 0.12 0.10 0.07 0.05 0.02 0.01 0.01 0.02 0.01 0.03 0.07 0.06 0.06 0.05 0.01 0.06 0.02 0.00 0.00
0.00 0.00 0.00 0.00 0.00 0.00 0.00 0.00 0.00 0.00 0.00 0.00 0.00 0.00 0.00 0.00 0.00 0.00 0.00 0.00 0.00 0.00 0.00 0.00 0.00 0.00 0.00 0.00 0.00 0.02 0.02 0.00 0.00 0.01 0.00 0.00 0.00 0.00 0.00 0.00 0.00 0.02 0.03 0.04 0.08 0.18 0.17 0.13 0.07 0.04 0.02 0.04 0.09 0.62 0.71 0.41 0.15 0.04 0.09 0.19 0.25 0.07 0.01
0.00 0.00 0.00 0.00 0.00 0.00 0.00 0.00 0.00 0.00 0.00 0.00 0.00 0.00 0.00 0.00 0.00 0.00 0.00 0.00 0.00 0.00 0.00 0.00 0.00 0.00 0.00 0.00 0.00 0.00 0.01 0.07 0.03 0.02 0.00 0.00 0.00 0.00 0.00 0.00 0.00 0.00 0.01 0.01 0.03 0.05 0.08 0.11 0.15 0.11 0.07 0.21 0.60 0.97 0.11 0.07 0.05 0.12 0.29 0.49 0.33 0.29 0.10
0.00 0.00 0.00 0.00 0.00 0.00 0.00 0.00 0.00 0.00 0.00 0.00 0.00 0.00 0.00 0.00 0.00 0.00 0.00 0.00 0.00 0.00 0.00 0.00 0.00 0.00 0.00 0.00 0.00 0.00 0.00 0.00 0.00 0.00 0.01 0.03 0.07 0.01 0.01 0.00 0.00 0.00 0.00 0.00 0.00 0.00 0.01 0.02 0.05 0.08 0.11 0.19 0.07 0.09 0.06 0.05 0.38 0.32 0.09 0.11 0.27 0.27 0.17
0.00 0.00 0.00 0.00 0.00 0.00 0.00 0.00 0.00 0.00 0.00 0.00 0.00 0.00 0.00 0.00 0.00 0.00 0.00 0.00 0.00 0.00 0.00 0.00 0.00 0.00 0.00 0.00 0.00 0.00 0.00 0.00 0.00 0.00 0.00 0.00 0.00 0.00 0.01 0.00 0.00 0.01 0.00 0.00 0.00 0.00 0.00 0.01 0.01 0.01 0.02 0.05 0.06 0.03 0.01 0.00 0.00 0.00 0.02 0.15 0.23 0.12 0.14
0.00 0.00 0.00 0.00 0.00 0.00 0.00 0.00 0.00 0.00 0.00 0.00 0.00 0.00 0.00 0.00 0.00 0.00 0.00 0.00 0.00 0.00 0.00 0.00 0.00 0.00 0.00 0.00 0.00 0.00 0.00 0.00 0.00 0.01 0.01 0.01 0.01 0.01 0.01 0.01 0.00 0.00 0.00 0.00 0.00 0.00 0.00 0.00 0.00 0.01 0.01 0.01 0.02 0.03 0.02 0.01 0.00 0.00 0.00 0.00 0.01 0.02 0.01
MSLP
1010.67 1010.63 1010.75 1011.11 1011.87 1011.67 1011.31 1011.47 1011.75 1012.19 1012.47 1012.79 1013.11 1013.35 1013.51 1013.79 1014.07 1014.43 1014.95 1015.39 1015.87 1016.31 1016.47 1016.67 1016.95 1017.11 1017.43 1017.55 1017.67 1017.79 1017.95 1018.19 1018.35 1018.71 1018.91 1018.99 1019.03 1019.19 1019.47 1019.43 1019.67 1019.83 1019.67 1019.95 1019.99 1020.15 1020.11 1020.03 1020.23 1020.31 1020.43 1020.63 1020.79 1020.91 1020.99 1021.03 1021.19 1021.15 1021.23 1021.35 1021.43 1021.51 1021.59
1011.27 1010.55 1010.75 1010.55 1011.11 1011.19 1011.23 1011.19 1011.71 1011.91 1012.11 1012.31 1012.67 1012.99 1013.15 1013.47 1013.83 1014.31 1014.71 1015.07 1015.47 1015.83 1016.11 1016.39 1016.71 1016.87 1017.07 1017.23 1017.31 1017.55 1017.83 1017.95 1018.15 1018.35 1018.51 1018.75 1018.83 1018.95 1019.03 1019.27 1019.43 1019.59 1019.67 1019.55 1019.63 1019.71 1019.79 1019.95 1020.03 1020.27 1020.39 1020.51 1020.59 1020.67 1020.83 1020.95 1021.03 1021.11 1021.11 1021.31 1021.47 1021.59 1021.55
1012.39 1011.59 1010.95 1011.35 1010.95 1011.07 1011.19 1011.31 1011.43 1011.79 1012.23 1012.19 1012.35 1012.67 1012.95 1013.23 1013.47 1013.99 1014.39 1014.83 1015.31 1015.55 1015.71 1016.03 1016.31 1016.51 1016.67 1016.91 1017.19 1017.35 1017.51 1017.71 1017.95 1018.23 1018.51 1018.55 1018.75 1018.75 1018.79 1018.99 1019.19 1019.27 1019.31 1019.35 1019.47 1019.63 1019.59 1019.83 1019.91 1020.03 1020.19 1020.35 1020.31 1020.51 1020.63 1020.75 1020.91 1020.99 1021.07 1021.19 1021.35 1021.47 1021.67
1013.23 1012.43 1011.31 1010.75 1011.23 1010.71 1010.95 1011.19 1011.47 1011.55 1011.75 1012.03 1012.23 1012.43 1012.67 1012.95 1013.07 1013.43 1013.83 1014.23 1014.91 1015.27 1015.71 1015.75 1016.03 1016.23 1016.43 1016.79 1017.03 1017.15 1017.35 1017.43 1017.55 1017.75 1017.95 1018.03 1018.31 1018.43 1018.63 1018.87 1019.03 1018.99 1019.19 1019.31 1019.19 1019.35 1019.35 1019.55 1019.83 1019.95 1020.11 1020.23 1020.31 1020.27 1020.43 1020.55 1020.63 1020.79 1020.91 1021.11 1021.23 1021.27 1021.47
1013.55 1013.11 1012.31 1012.03 1010.95 1010.51 1010.95 1011.23 1011.51 1011.55 1011.67 1011.67 1011.71 1012.03 1012.07 1012.39 1012.71 1013.11 1013.51 1013.71 1014.03 1014.71 1014.87 1015.15 1015.35 1015.63 1015.95 1016.19 1016.47 1016.63 1016.87 1017.07 1017.27 1017.39 1017.55 1017.67 1017.87 1018.11 1018.47 1018.63 1018.75 1018.95 1018.91 1018.91 1019.03 1019.27 1019.51 1019.67 1019.71 1019.83 1020.03 1020.11 1020.19 1020.19 1020.35 1020.43 1020.51 1020.63 1020.79 1020.95 1021.19 1021.11 1021.27
1014.47 1013.99 1013.63 1012.79 1012.27 1011.07 1010.83 1010.91 1011.23 1011.15 1011.55 1011.63 1011.79 1011.87 1011.75 1011.99 1012.31 1012.75 1013.07 1013.51 1013.87 1014.03 1014.39 1014.75 1015.07 1015.39 1015.87 1015.83 1015.99 1016.19 1016.39 1016.67 1016.87 1017.11 1017.35 1017.55 1017.83 1018.07 1018.23 1018.39 1018.47 1018.63 1018.75 1018.91 1018.75 1018.95 1019.19 1019.43 1019.51 1019.59 1019.79 1019.79 1019.87 1019.91 1019.99 1020.19 1020.27 1020.35 1020.59 1020.79 1020.95 1020.91 1020.99
1015.55 1014.79 1014.31 1013.79 1013.15 1012.51 1011.95 1011.99 1011.47 1011.11 1011.19 1011.47 1011.71 1011.55 1011.75 1011.79 1012.31 1012.55 1012.71 1013.27 1013.55 1014.11 1014.31 1014.67 1014.87 1015.15 1015.59 1015.59 1015.83 1016.03 1016.39 1016.47 1016.71 1016.91 1016.99 1017.27 1017.43 1017.83 1017.91 1018.03 1018.15 1018.23 1018.31 1018.39 1018.71 1018.63 1018.91 1019.15 1019.31 1019.39 1019.51 1019.55 1019.63 1019.75 1019.91 1020.11 1020.19 1020.11 1020.31 1020.67 1020.91 1020.91 1020.95
1016.43 1015.67 1014.83 1014.39 1014.03 1013.55 1013.11 1012.79 1012.35 1011.87 1011.67 1012.15 1012.83 1011.75 1012.43 1012.35 1012.15 1012.63 1012.67 1012.79 1013.19 1013.51 1013.91 1014.27 1014.55 1014.87 1015.23 1015.47 1015.51 1015.79 1015.99 1016.07 1016.23 1016.51 1016.71 1017.03 1017.19 1017.55 1017.63 1017.75 1017.91 1017.99 1018.15 1018.39 1018.39 1018.47 1018.63 1018.79 1018.87 1019.03 1019.23 1019.39 1019.51 1019.63 1019.67 1019.91 1020.11 1020.03 1020.11 1020.47 1020.75 1020.87 1020.67
1017.03 1016.43 1015.95 1015.35 1014.95 1014.59 1014.23 1013.83 1013.43 1013.15 1012.87 1012.71 1012.47 1012.15 1011.87 1011.91 1012.19 1012.67 1012.59 1012.87 1013.03 1013.43 1013.71 1013.67 1013.95 1014.27 1014.71 1015.15 1015.51 1015.67 1015.63 1015.75 1015.95 1016.23 1016.51 1016.75 1016.83 1017.03 1017.11 1017.31 1017.51 1017.59 1017.95 1018.07 1017.99 1018.11 1018.31 1018.43 1018.51 1018.75 1018.99 1019.23 1019.31 1019.51 1019.59 1019.71 1019.87 1019.83 1019.95 1020.19 1020.47 1020.71 1020.59
1017.51 1017.31 1016.87 1016.39 1015.95 1015.67 1015.39 1014.87 1014.39 1014.15 1014.19 1013.87 1013.55 1013.39 1013.67 1012.75 1012.23 1012.39 1012.67 1013.03 1013.15 1013.59 1013.59 1013.71 1013.71 1013.83 1014.35 1014.83 1015.11 1015.23 1015.51 1015.75 1015.71 1015.83 1016.11 1016.39 1016.39 1016.55 1016.59 1016.59 1016.91 1017.15 1017.47 1017.63 1017.59 1017.79 1017.95 1018.11 1018.23 1018.47 1018.83 1019.11 1019.27 1019.39 1019.47 1019.59 1019.67 1019.67 1019.71 1019.99 1020.19 1020.35 1020.55
1017.95 1017.75 1017.51 1017.19 1016.95 1016.75 1016.35 1015.99 1015.95 1015.83 1015.35 1014.95 1014.59 1014.27 1014.03 1013.83 1012.87 1012.67 1012.99 1013.15 1013.23 1013.31 1013.23 1013.51 1013.55 1013.71 1013.95 1014.31 1014.75 1014.95 1015.19 1015.43 1015.51 1015.67 1015.79 1015.91 1015.87 1016.03 1016.11 1016.19 1016.31 1016.59 1017.03 1017.15 1017.35 1017.31 1017.55 1017.91 1018.03 1018.35 1018.63 1018.91 1019.03 1019.15 1019.27 1019.35 1019.43 1019.59 1019.59 1019.59 1019.63 1019.91 1020.03
1018.39 1018.07 1018.07 1017.99 1017.67 1017.23 1017.27 1017.31 1017.03 1016.83 1016.43 1015.83 1015.27 1014.91 1014.79 1014.67 1014.39 1013.51 1013.35 1013.71 1013.59 1013.67 1013.63 1013.59 1013.55 1013.71 1013.95 1013.99 1014.27 1014.71 1014.91 1015.07 1015.19 1015.35 1015.47 1015.55 1015.55 1015.63 1015.67 1015.75 1015.95 1016.15 1016.47 1016.75 1017.03 1017.15 1017.19 1017.55 1017.79 1017.99 1018.31 1018.43 1018.55 1018.67 1018.83 1018.91 1019.03 1019.23 1019.35 1019.27 1019.27 1019.47 1019.63
1018.55 1018.55 1018.43 1018.31 1018.27 1018.07 1017.71 1017.55 1017.63 1017.59 1017.31 1016.83 1016.35 1015.87 1015.59 1015.59 1015.43 1015.07 1014.55 1014.15 1013.95 1013.87 1013.99 1013.91 1013.87 1013.95 1014.15 1014.03 1014.15 1014.39 1014.63 1014.67 1014.87 1014.95 1015.03 1015.19 1015.27 1015.19 1015.31 1015.47 1015.55 1015.75 1016.03 1016.27 1016.55 1016.83 1017.03 1017.07 1017.47 1017.55 1017.79 1017.99 1018.11 1018.27 1018.39 1018.59 1018.63 1018.83 1018.99 1019.03 1019.03 1019.19 1019.39
1018.67 1018.67 1018.47 1018.39 1018.39 1018.31 1018.19 1018.11 1017.99 1017.87 1017.75 1017.47 1017.11 1016.79 1016.47 1016.15 1015.95 1015.67 1015.43 1015.07 1014.63 1014.11 1013.67 1013.51 1013.71 1014.07 1014.07 1014.19 1014.23 1014.43 1014.43 1014.35 1014.35 1014.59 1014.75 1014.75 1014.95 1015.11 1015.11 1015.19 1015.31 1015.47 1015.59 1015.87 1016.31 1016.47 1016.59 1016.75 1016.99 1017.19 1017.27 1017.43 1017.63 1017.75 1017.87 1018.15 1018.35 1018.47 1018.59 1018.67 1018.75 1018.91 1019.07
1018.79 1019.03 1018.91 1018.71 1018.79 1018.71 1018.55 1018.43 1018.39 1018.23 1018.15 1018.03 1017.71 1017.51 1017.23 1016.91 1016.59 1016.19 1015.71 1015.47 1015.03 1014.75 1014.51 1014.19 1013.79 1013.31 1013.71 1013.95 1014.15 1014.23 1014.19 1014.19 1014.19 1014.23 1014.51 1014.75 1014.91 1015.11 1015.23 1015.19 1015.27 1015.35 1015.47 1015.71 1015.95 1015.95 1016.07 1016.15 1016.35 1016.75 1016.99 1016.99 1017.11 1017.27 1017.39 1017.59 1017.83 1017.87 1018.07 1018.39 1018.51 1018.51 1018.71
1018.63 1018.83 1019.07 1019.19 1019.11 1018.91 1018.75 1018.63 1018.55 1018.51 1018.39 1018.27 1018.19 1018.07 1017.83 1017.63 1017.35 1016.91 1016.43 1016.07 1015.59 1015.35 1015.07 1014.79 1014.51 1014.23 1013.43 1013.59 1013.91 1013.87 1013.99 1014.19 1014.27 1014.31 1014.47 1014.79 1015.03 1015.15 1015.19 1015.27 1015.31 1015.39 1015.55 1015.63 1015.75 1015.87 1015.91 1015.99 1016.11 1016.27 1016.59 1016.83 1016.91 1016.95 1017.03 1017.11 1017.03 1017.19 1017.55 1017.75 1017.91 1018.15 1018.23
1018.99 1018.91 1018.87 1019.03 1019.19 1019.15 1018.99 1018.71 1018.67 1018.71 1018.75 1018.67 1018.47 1018.35 1018.31 1018.27 1017.95 1017.55 1017.11 1016.79 1016.27 1015.95 1015.51 1015.19 1015.11 1014.71 1014.31 1013.63 1013.11 1013.35 1013.71 1014.03 1014.23 1014.39 1014.59 1014.67 1014.83 1014.99 1015.15 1015.27 1015.27 1015.43 1015.59 1015.67 1015.75 1015.87 1015.95 1016.07 1016.15 1016.15 1016.07 1016.31 1016.51 1016.67 1016.67 1016.55 1016.39 1016.75 1017.19 1017.51 1017.71 1017.79 1017.99
1019.63 1019.35 1019.19 1019.07 1019.15 1019.31 1019.23 1018.99 1018.87 1018.87 1018.91 1018.91 1018.75 1018.51 1018.31 1018.27 1018.19 1017.99 1017.71 1017.35 1017.07 1016.51 1015.83 1015.55 1015.23 1015.11 1014.99 1014.47 1014.03 1013.71 1013.79 1013.95 1014.15 1014.35 1014.43 1014.51 1014.71 1014.83 1014.91 1015.07 1015.23 1015.43 1015.51 1015.63 1015.71 1015.79 1015.75 1015.95 1016.07 1016.03 1015.95 1015.91 1015.99 1016.15 1016.11 1016.07 1015.99 1016.43 1016.87 1017.19 1017.43 1017.63 1017.67
1019.79 1019.67 1019.47 1019.35 1019.23 1019.27 1019.43 1019.35 1019.19 1018.99 1018.91 1018.87 1018.75 1018.63 1018.39 1018.19 1018.19 1018.15 1017.87 1017.59 1017.27 1016.63 1016.35 1015.91 1015.51 1015.35 1015.15 1015.03 1014.87 1014.79 1014.35 1014.15 1014.23 1014.31 1014.35 1014.35 1014.39 1014.51 1014.71 1014.95 1015.15 1015.27 1015.35 1015.43 1015.31 1015.35 1015.71 1015.79 1015.79 1015.87 1015.79 1015.79 1015.91 1015.87 1015.63 1015.59 1015.55 1016.11 1016.51 1016.87 1017.19 1017.47 1017.67
1020.03 1019.79 1019.55 1019.51 1019.35 1019.27 1019.39 1019.27 1019.23 1018.99 1018.87 1018.79 1018.63 1018.43 1018.19 1018.11 1018.11 1017.91 1017.63 1017.43 1017.03 1016.75 1016.47 1016.27 1015.99 1015.55 1015.27 1015.35 1015.55 1015.19 1014.91 1014.71 1014.39 1014.23 1014.07 1014.07 1014.15 1014.27 1014.51 1014.63 1014.83 1014.75 1014.67 1014.79 1014.91 1015.27 1015.39 1015.35 1015.47 1015.47 1015.59 1015.59 1015.63 1015.59 1015.43 1015.27 1015.15 1015.67 1016.07 1016.47 1016.87 1017.23 1017.63
1020.15 1020.03 1019.87 1019.71 1019.71 1019.55 1019.59 1019.31 1019.15 1018.79 1018.83 1018.67 1018.43 1018.15 1017.87 1017.83 1017.71 1017.67 1017.47 1017.19 1016.99 1016.75 1016.59 1016.43 1016.43 1016.35 1016.11 1015.75 1015.35 1015.23 1014.87 1014.63 1014.71 1014.67 1014.15 1013.79 1013.83 1013.95 1014.19 1014.39 1014.43 1014.51 1014.43 1014.39 1014.55 1014.83 1015.07 1015.11 1015.19 1015.15 1015.15 1015.15 1015.15 1015.23 1015.15 1014.79 1014.83 1015.27 1015.71 1016.03 1016.43 1016.83 1017.35
1020.11 1020.03 1020.03 1019.83 1019.75 1019.79 1019.67 1019.35 1019.23 1018.91 1018.87 1018.35 1018.15 1018.03 1017.91 1017.91 1017.59 1017.63 1017.63 1017.27 1017.19 1016.99 1016.63 1016.43 1016.59 1016.67 1016.39 1016.11 1015.67 1015.39 1015.07 1014.83 1014.67 1014.35 1014.11 1013.95 1013.75 1013.83 1013.99 1014.07 1014.15 1014.35 1014.31 1014.31 1014.03 1013.87 1013.99 1014.27 1014.47 1014.67 1014.71 1014.67 1014.71 1014.83 1014.87 1014.35 1014.39 1014.75 1015.19 1015.59 1015.99 1016.55 1016.95
1019.83 1019.95 1019.83 1019.63 1019.55 1019.55 1019.47 1019.19 1019.19 1018.95 1018.83 1018.47 1018.23 1018.07 1018.19 1017.95 1017.75 1017.71 1017.59 1017.43 1017.27 1017.07 1016.67 1016.47 1016.71 1016.87 1016.75 1016.55 1016.07 1015.79 1015.51 1015.23 1015.11 1014.79 1014.27 1014.03 1014.03 1014.03 1013.95 1013.95 1014.03 1014.07 1013.99 1014.27 1014.11 1014.11 1013.87 1013.83 1013.83 1013.91 1014.11 1014.19 1014.31 1014.55 1014.43 1014.15 1013.95 1014.27 1014.63 1015.07 1015.55 1016.35 1016.31
1019.35 1019.39 1019.47 1019.51 1019.39 1019.27 1019.23 1019.23 1019.15 1018.83 1018.71 1018.55 1018.31 1018.19 1018.11 1017.91 1017.83 1017.71 1017.67 1017.59 1017.43 1017.27 1016.95 1016.55 1016.55 1016.59 1016.59 1016.63 1016.31 1016.03 1015.79 1015.47 1015.11 1014.75 1014.35 1014.15 1014.15 1014.07 1013.99 1014.07 1014.51 1014.67 1013.71 1013.87 1013.95 1013.91 1013.55 1013.23 1013.27 1013.23 1013.23 1013.51 1013.71 1013.71 1013.99 1013.75 1013.43 1013.79 1014.15 1014.59 1015.15 1015.43 1015.55
1019.47 1019.31 1019.31 1019.31 1019.31 1019.31 1019.35 1019.43 1019.43 1019.11 1018.63 1018.35 1018.35 1018.31 1018.11 1017.95 1017.95 1017.79 1017.79 1017.71 1017.55 1017.31 1017.23 1016.91 1016.67 1016.47 1016.47 1016.23 1016.07 1015.91 1015.63 1015.31 1014.99 1014.67 1014.31 1014.11 1013.95 1013.71 1013.79 1014.07 1014.39 1014.63 1014.87 1014.63 1013.79 1013.59 1013.39 1013.51 1013.67 1013.27 1012.91 1012.63 1012.79 1012.99 1013.39 1013.23 1012.99 1013.23 1013.67 1014.03 1014.59 1014.95 1014.87
1019.87 1019.71 1019.43 1019.19 1018.95 1019.19 1019.39 1019.31 1019.15 1018.91 1018.67 1018.51 1018.55 1018.39 1018.07 1017.95 1017.91 1017.91 1018.03 1017.99 1017.67 1017.51 1017.43 1017.23 1017.03 1016.59 1016.27 1016.07 1015.75 1015.39 1015.35 1015.19 1015.03 1014.71 1014.39 1014.15 1013.91 1013.67 1013.71 1013.99 1014.39 1014.23 1013.91 1013.67 1013.39 1013.39 1013.19 1013.11 1013.15 1013.27 1013.07 1012.63 1012.51 1012.35 1012.35 1012.59 1012.55 1012.59 1013.07 1013.47 1014.03 1014.39 1014.35
1019.83 1019.79 1019.79 1019.47 1019.23 1019.47 1019.27 1018.99 1018.83 1018.87 1018.67 1018.47 1018.51 1018.31 1018.11 1018.03 1017.99 1018.03 1018.03 1017.95 1017.79 1017.63 1017.27 1017.07 1016.91 1016.71 1016.51 1016.15 1015.79 1015.43 1015.11 1015.07 1014.87 1014.59 1014.23 1013.87 1013.75 1013.79 1013.75 1013.71 1013.87 1013.71 1013.35 1012.99 1012.71 1012.67 1012.75 1012.71 1012.71 1012.71 1012.63 1012.39 1012.15 1011.83 1011.63 1011.51 1011.79 1011.87 1012.43 1012.95 1013.43 1013.83 1014.03
1019.79 1019.83 1019.71 1019.67 1019.75 1019.51 1019.15 1018.91 1018.87 1018.71 1018.43 1018.27 1018.15 1017.99 1017.99 1018.07 1018.19 1018.19 1017.95 1017.79 1017.67 1017.43 1016.95 1016.95 1016.87 1016.71 1016.59 1016.47 1016.07 1015.63 1015.23 1014.91 1014.67 1014.31 1013.83 1013.39 1013.27 1013.47 1013.51 1013.27 1013.23 1013.11 1013.07 1013.03 1012.75 1012.67 1012.59 1012.51 1012.63 1012.63 1012.47 1012.03 1011.55 1011.39 1011.23 1010.95 1011.15 1011.11 1011.63 1012.19 1012.75 1013.19 1013.51
1020.03 1019.99 1019.95 1019.99 1019.83 1019.51 1019.39 1019.15 1018.99 1018.79 1018.63 1018.23 1018.03 1017.99 1018.03 1018.07 1018.31 1018.27 1018.07 1017.91 1017.63 1017.19 1016.99 1016.91 1016.79 1016.71 1016.59 1016.43 1016.27 1015.99 1015.47 1015.03 1014.71 1014.43 1013.99 1013.67 1013.39 1013.43 1013.55 1013.39 1013.35 1013.35 1013.15 1013.11 1012.87 1012.55 1012.39 1012.27 1012.15 1012.19 1012.23 1011.87 1011.39 1010.99 1010.67 1010.47 1010.43 1010.71 1010.95 1011.51 1012.07 1012.51 1012.95
1020.03 1019.95 1019.87 1019.63 1019.55 1019.55 1019.63 1019.63 1019.27 1018.99 1018.59 1018.39 1018.23 1018.11 1018.07 1018.19 1018.35 1018.27 1018.15 1017.95 1017.43 1017.27 1017.11 1016.95 1016.71 1016.67 1016.55 1016.39 1016.27 1016.11 1015.79 1015.31 1014.83 1014.35 1013.99 1013.75 1013.59 1013.47 1013.59 1013.55 1013.47 1013.31 1013.03 1012.75 1012.75 1012.55 1012.51 1012.27 1011.99 1011.83 1011.67 1011.63 1011.47 1011.03 1010.39 1009.91 1009.83 1009.95 1010.27 1010.71 1011.31 1011.79 1012.15
1020.19 1020.15 1019.95 1019.83 1019.67 1019.59 1019.59 1019.51 1019.51 1019.19 1018.75 1018.35 1018.19 1018.03 1017.99 1017.99 1018.15 1018.11 1018.11 1017.67 1017.39 1017.31 1017.19 1016.99 1016.83 1016.71 1016.55 1016.27 1015.99 1015.87 1015.67 1015.39 1015.07 1014.55 1014.07 1013.67 1013.47 1013.47 1013.27 1013.19 1013.19 1013.19 1012.67 1012.67 1012.87 1012.63 1012.11 1011.63 1011.35 1011.43 1011.39 1011.35 1011.31 1010.99 1010.47 1009.91 1009.55 1009.43 1009.55 1010.03 1010.59 1011.03 1011.43
1020.27 1020.11 1019.95 1019.79 1019.67 1019.59 1019.63 1019.39 1019.19 1019.07 1018.83 1018.47 1018.11 1017.95 1017.83 1017.75 1017.75 1017.91 1017.71 1017.47 1017.39 1017.23 1016.95 1016.79 1016.71 1016.63 1016.39 1016.07 1015.75 1015.47 1015.23 1015.11 1014.71 1014.31 1013.83 1013.51 1013.11 1012.95 1012.83 1012.75 1012.63 1012.63 1012.51 1012.59 1012.63 1012.31 1012.19 1011.67 1011.27 1011.07 1010.91 1010.99 1010.75 1010.55 1010.31 1010.15 1009.87 1009.63 1009.39 1009.63 1009.99 1010.39 1010.71
1020.51 1020.39 1020.27 1020.15 1019.91 1019.79 1019.59 1019.39 1019.19 1019.03 1018.87 1018.67 1018.35 1018.11 1017.83 1017.71 1017.59 1017.51 1017.39 1017.35 1017.11 1016.83 1016.67 1016.55 1016.47 1016.39 1016.15 1015.91 1015.55 1015.27 1015.15 1015.03 1014.67 1014.27 1013.91 1013.59 1012.99 1012.39 1012.19 1012.07 1012.07 1012.11 1012.11 1012.07 1012.11 1012.07 1011.95 1011.59 1011.39 1011.23 1010.91 1010.59 1010.23 1010.07 1010.23 1010.47 1010.35 1010.23 1009.99 1009.71 1009.79 1009.75 1010.19
1020.43 1020.31 1020.15 1020.07 1019.95 1019.87 1019.71 1019.51 1019.31 1019.07 1018.87 1018.67 1018.43 1018.27 1017.99 1017.67 1017.47 1017.27 1017.23 1017.11 1016.95 1016.67 1016.55 1016.43 1016.27 1016.15 1015.95 1015.71 1015.43 1015.15 1014.87 1014.71 1014.55 1014.43 1013.95 1013.47 1012.95 1012.59 1012.31 1011.99 1011.71 1011.71 1011.79 1011.71 1011.63 1011.71 1011.63 1011.47 1011.35 1011.15 1010.75 1010.43 1010.11 1010.67 1011.43 1011.79 1011.35 1010.79 1010.31 1010.35 1010.47 1009.51 1008.91
1020.35 1020.23 1020.11 1020.03 1019.91 1019.87 1019.79 1019.59 1019.39 1019.11 1018.87 1018.59 1018.31 1018.11 1017.99 1017.79 1017.43 1017.15 1017.03 1016.91 1016.71 1016.55 1016.47 1016.31 1016.11 1015.95 1015.79 1015.47 1015.15 1014.79 1014.47 1014.23 1013.99 1013.75 1013.71 1013.51 1013.23 1012.75 1012.39 1012.23 1011.91 1011.67 1011.31 1010.79 1010.67 1010.79 1010.87 1010.87 1010.75 1010.55 1010.07 1009.91 1010.51 1011.27 1011.15 1010.75 1010.51 1010.23 1010.51 1010.87 1010.63 1010.07 1008.79
1020.11 1020.03 1019.95 1019.83 1019.71 1019.63 1019.55 1019.43 1019.23 1018.99 1018.71 1018.39 1018.15 1017.91 1017.75 1017.59 1017.31 1016.95 1016.67 1016.55 1016.47 1016.35 1016.31 1016.11 1015.91 1015.71 1015.39 1015.03 1014.67 1014.27 1014.07 1013.83 1013.47 1013.43 1013.59 1013.51 1013.31 1012.95 1012.43 1011.75 1011.55 1011.35 1011.39 1010.99 1010.55 1010.59 1010.51 1010.59 1010.43 1009.91 1009.91 1010.19 1010.07 1009.95 1010.19 1010.03 1009.91 1009.87 1009.87 1009.99 1010.43 1010.47 1010.07
1019.87 1019.79 1019.79 1019.67 1019.59 1019.39 1019.31 1019.07 1018.87 1018.67 1018.47 1018.19 1017.91 1017.63 1017.43 1017.19 1016.99 1016.83 1016.55 1016.35 1016.19 1016.11 1015.99 1015.91 1015.79 1015.55 1015.19 1014.83 1014.43 1014.11 1014.07 1013.95 1013.75 1013.35 1013.35 1013.31 1013.27 1013.15 1012.91 1012.31 1011.39 1011.03 1010.99 1010.95 1010.63 1010.39 1010.15 1009.95 1009.83 1009.71 1009.91 1010.23 1010.11 1009.63 1009.43 1009.31 1009.55 1009.75 1009.75 1009.95 1010.27 1010.47 1009.91
1019.71 1019.71 1019.59 1019.43 1019.27 1019.15 1018.99 1018.79 1018.63 1018.39 1018.15 1017.87 1017.63 1017.39 1017.19 1016.95 1016.75 1016.67 1016.43 1016.15 1015.95 1015.87 1015.87 1015.83 1015.71 1015.47 1015.11 1014.75 1014.39 1014.23 1014.23 1014.07 1013.83 1013.55 1013.31 1013.19 1013.15 1013.11 1012.99 1012.67 1012.11 1011.11 1010.31 1010.03 1009.91 1009.83 1009.67 1009.55 1009.47 1009.39 1009.47 1009.71 1009.79 1009.71 1009.43 1009.19 1009.35 1009.43 1009.27 1009.07 1009.03 1009.31 1009.27
Thickness
5810 5813 5811 5810 5810 5810 5813 5815 5812 5811 5811 5809 5807 5806 5806 5804 5803 5801 5798 5797 5794 5792 5792 5792 5791 5791 5790 5790 5792 5792 5791 5790 5789 5788 5788 5788 5788 5788 5787 5786 5787 5786 5787 5787 5787 5788 5787 5787 5787 5786 5785 5785 5784 5784 5784 5784 5784 5785 5785 5785 5785 5786 5786
5804 5810 5814 5812 5811 5811 5813 5814 5811 5810 5811 5810 5810 5808 5807 5806 5803 5801 5799 5796 5795 5794 5794 5793 5792 5791 5791 5792 5793 5793 5793 5791 5791 5790 5789 5789 5789 5789 5789 5789 5788 5788 5788 5790 5789 5789 5789 5789 5788 5788 5787 5787 5787 5786 5785 5785 5785 5785 5786 5786 5786 5786 5785
5795 5803 5810 5810 5810 5812 5811 5812 5811 5809 5809 5809 5809 5808 5807 5807 5805 5802 5800 5797 5795 5794 5794 5794 5794 5793 5793 5793 5794 5794 5794 5793 5792 5791 5791 5791 5790 5790 5791 5790 5789 5789 5790 5790 5790 5790 5790 5790 5790 5789 5788 5788 5788 5788 5787 5787 5787 5786 5787 5786 5786 5787 5785
5786 5795 5804 5807 5809 5812 5811 5811 5810 5809 5809 5810 5810 5808 5808 5807 5806 5804 5801 5799 5796 5794 5794 5794 5794 5795 5794 5794 5794 5794 5795 5794 5794 5794 5793 5793 5792 5792 5792 5790 5790 5790 5790 5791 5791 5791 5791 5791 5790 5790 5789 5789 5790 5789 5788 5789 5788 5788 5788 5787 5787 5788 5787
5780 5786 5794 5800 5806 5811 5812 5809 5809 5810 5810 5811 5812 5811 5810 5809 5807 5805 5803 5802 5800 5796 5795 5795 5795 5795 5795 5795 5795 5796 5796 5796 5796 5796 5795 5795 5794 5793 5792 5791 5791 5791 5790 5791 5792 5792 5791 5791 5791 5791 5791 5791 5791 5791 5791 5790 5790 5789 5789 5789 5788 5788 5788
5771 5777 5783 5789 5797 5806 5809 5807 5809 5811 5811 5810 5811 5811 5812 5811 5808 5807 5805 5804 5802 5799 5797 5796 5796 5795 5794 5795 5796 5796 5796 5796 5796 5796 5795 5795 5794 5793 5792 5793 5793 5792 5792 5792 5793 5793 5793 5792 5792 5793 5793 5793 5793 5793 5793 5792 5792 5792 5791 5790 5789 5790 5790
5762 5769 5776 5780 5787 5794 5799 5802 5806 5810 5810 5807 5806 5808 5810 5810 5808 5808 5807 5805 5803 5802 5799 5797 5797 5795 5794 5795 5796 5796 5796 5796 5796 5796 5796 5796 5795 5794 5793 5794 5794 5794 5795 5794 5794 5795 5794 5794 5794 5794 5794 5794 5794 5794 5794 5793 5793 5794 5793 5792 5790 5790 5791
5753 5760 5767 5773 5778 5783 5787 5792 5798 5802 5804 5802 5802 5806 5806 5806 5807 5807 5807 5807 5806 5805 5803 5802 5801 5799 5797 5796 5795 5795 5796 5797 5797 5796 5796 5796 5795 5795 5794 5795 5795 5796 5796 5795 5795 5796 5796 5796 5796 5796 5795 5795 5795 5795 5794 5793 5793 5794 5794 5793 5791 5791 5792
5746 5751 5758 5764 5768 5773 5776 5781 5787 5790 5793 5795 5798 5801 5801 5804 5807 5805 5806 5807 5805 5804 5804 5805 5805 5804 5801 5799 5797 5797 5796 5796 5797 5797 5796 5796 5796 5797 5796 5797 5797 5797 5796 5796 5798 5798 5797 5798 5798 5798 5797 5796 5795 5795 5794 5794 5794 5795 5795 5793 5792 5792 5793
5740 5743 5748 5754 5758 5762 5766 5771 5776 5778 5781 5784 5787 5790 5793 5799 5805 5805 5804 5805 5803 5802 5802 5803 5805 5805 5803 5801 5800 5800 5799 5798 5798 5797 5797 5797 5798 5798 5799 5800 5800 5799 5798 5798 5799 5800 5799 5799 5799 5798 5797 5795 5795 5795 5794 5794 5795 5795 5795 5795 5794 5793 5793
5734 5736 5741 5745 5748 5752 5756 5759 5762 5764 5768 5773 5777 5781 5784 5789 5796 5801 5801 5800 5801 5801 5800 5802 5803 5803 5803 5802 5801 5801 5801 5800 5799 5799 5798 5798 5800 5800 5800 5801 5802 5801 5800 5799 5800 5800 5800 5799 5799 5798 5797 5795 5795 5795 5795 5796 5796 5795 5795 5796 5796 5795 5795
5728 5731 5734 5737 5740 5744 5746 5749 5750 5752 5757 5762 5767 5772 5775 5778 5783 5790 5793 5795 5796 5796 5797 5799 5800 5800 5801 5801 5802 5801 5802 5802 5801 5801 5800 5800 5801 5801 5801 5802 5803 5803 5801 5800 5800 5800 5800 5800 5799 5799 5798 5797 5797 5797 5797 5798 5798 5797 5797 5798 5798 5797 5797
5722 5725 5728 5730 5733 5736 5739 5741 5743 5744 5747 5752 5757 5763 5766 5768 5772 5777 5783 5786 5789 5792 5794 5796 5797 5797 5798 5799 5800 5800 5801 5802 5803 5802 5802 5801 5801 5802 5803 5803 5804 5804 5803 5802 5801 5800 5800 5800 5800 5800 5800 5799 5799 5799 5799 5800 5799 5799 5799 5799 5800 5799 5798
5716 5718 5722 5725 5727 5729 5733 5735 5737 5739 5741 5744 5748 5753 5757 5761 5764 5769 5773 5777 5782 5786 5790 5793 5795 5796 5796 5797 5798 5799 5800 5802 5803 5803 5802 5802 5802 5802 5803 5804 5804 5804 5804 5803 5802 5801 5802 5801 5801 5801 5801 5801 5801 5801 5802 5801 5801 5801 5801 5800 5801 5800 5799
5711 5712 5716 5718 5721 5723 5726 5728 5731 5734 5736 5738 5741 5745 5749 5753 5757 5761 5766 5770 5776 5780 5784 5788 5791 5795 5796 5796 5797 5798 5799 5800 5801 5802 5802 5801 5801 5800 5801 5803 5803 5804 5804 5804 5803 5803 5803 5804 5803 5802 5802 5802 5803 5803 5803 5803 5803 5804 5803 5802 5802 5801 5801
5707 5708 5709 5711 5714 5717 5720 5723 5725 5728 5731 5733 5736 5738 5741 5744 5748 5753 5758 5763 5768 5773 5777 5780 5783 5789 5794 5796 5797 5797 5797 5797 5798 5799 5799 5798 5798 5798 5799 5800 5801 5802 5803 5803 5803 5803 5803 5804 5804 5803 5803 5802 5803 5803 5804 5806 5807 5807 5805 5804 5803 5803 5802
5699 5702 5704 5706 5708 5710 5714 5717 5720 5722 5724 5727 5730 5733 5735 5737 5741 5745 5750 5754 5759 5764 5769 5773 5776 5781 5786 5792 5797 5797 5796 5796 5795 5795 5795 5796 5796 5796 5796 5797 5799 5800 5800 5801 5801 5802 5802 5803 5802 5803 5805 5804 5804 5804 5805 5808 5810 5809 5806 5804 5803 5803 5802
5690 5694 5698 5701 5703 5705 5707 5710 5713 5716 5718 5720 5724 5728 5731 5733 5735 5739 5743 5746 5751 5756 5762 5767 5771 5774 5778 5782 5787 5790 5791 5793 5792 5792 5793 5794 5794 5794 5795 5796 5796 5797 5798 5798 5799 5800 5801 5801 5802 5803 5805 5806 5806 5806 5808 5810 5812 5809 5806 5805 5803 5803 5802
5684 5687 5691 5695 5698 5699 5701 5703 5707 5710 5712 5716 5719 5722 5727 5730 5732 5734 5738 5741 5746 5751 5756 5761 5765 5768 5772 5773 5775 5778 5783 5786 5788 5789 5791 5792 5793 5793 5794 5793 5794 5796 5797 5798 5799 5799 5800 5801 5802 5804 5805 5806 5807 5808 5810 5813 5813 5811 5807 5805 5804 5802 5801
5677 5681 5685 5689 5692 5694 5696 5698 5702 5705 5708 5711 5715 5719 5723 5726 5729 5732 5736 5739 5743 5747 5750 5754 5757 5760 5764 5767 5769 5772 5777 5780 5783 5785 5789 5792 5792 5792 5792 5792 5793 5795 5796 5798 5798 5798 5799 5800 5802 5803 5805 5807 5807 5809 5811 5814 5814 5813 5809 5806 5805 5802 5800
5670 5674 5678 5681 5685 5688 5690 5693 5697 5701 5704 5708 5711 5716 5720 5723 5726 5730 5733 5737 5739 5742 5745 5747 5748 5751 5756 5762 5766 5770 5774 5777 5779 5781 5786 5790 5792 5792 5791 5791 5791 5792 5794 5797 5798 5799 5799 5800 5801 5802 5805 5807 5809 5809 5812 5816 5817 5814 5810 5808 5806 5803 5801
5664 5667 5671 5675 5678 5681 5684 5688 5692 5695 5699 5704 5708 5711 5714 5718 5722 5725 5728 5732 5735 5737 5741 5742 5741 5743 5749 5756 5761 5765 5769 5772 5774 5778 5782 5786 5788 5790 5790 5790 5790 5790 5790 5792 5796 5799 5801 5801 5802 5803 5804 5806 5808 5809 5812 5817 5818 5816 5812 5810 5806 5803 5802
5660 5662 5665 5670 5673 5676 5680 5683 5686 5690 5694 5698 5703 5706 5708 5712 5717 5719 5722 5726 5729 5733 5737 5740 5739 5739 5743 5748 5753 5758 5762 5764 5768 5773 5778 5781 5783 5784 5786 5787 5786 5787 5788 5788 5790 5794 5799 5802 5804 5805 5806 5806 5807 5808 5810 5815 5818 5817 5814 5812 5807 5804 5804
5657 5659 5661 5665 5668 5672 5675 5677 5681 5684 5688 5693 5697 5699 5703 5707 5710 5713 5715 5718 5723 5727 5732 5736 5737 5737 5739 5743 5747 5751 5755 5759 5764 5769 5773 5776 5778 5779 5782 5780 5778 5780 5782 5785 5788 5792 5797 5801 5803 5806 5808 5809 5809 5809 5810 5814 5819 5817 5815 5813 5809 5807 5807
5651 5654 5657 5660 5663 5666 5668 5670 5674 5678 5684 5688 5690 5693 5698 5701 5704 5707 5709 5711 5715 5720 5724 5729 5733 5735 5737 5740 5744 5749 5752 5756 5761 5766 5769 5773 5774 5777 5778 5776 5775 5777 5779 5782 5786 5790 5794 5797 5798 5801 5806 5810 5811 5811 5811 5814 5818 5818 5816 5813 5810 5808 5809
5644 5647 5650 5654 5658 5660 5661 5665 5669 5673 5678 5682 5683 5687 5692 5694 5697 5700 5701 5704 5709 5713 5716 5721 5725 5730 5734 5737 5742 5746 5750 5753 5757 5761 5765 5768 5770 5772 5773 5772 5774 5778 5781 5785 5787 5790 5792 5794 5796 5798 5802 5806 5810 5812 5814 5815 5818 5818 5816 5813 5810 5808 5809
5638 5640 5643 5647 5650 5652 5655 5660 5664 5667 5672 5675 5678 5682 5686 5688 5690 5693 5696 5699 5702 5706 5711 5715 5720 5724 5728 5732 5737 5742 5747 5750 5753 5757 5762 5765 5768 5769 5770 5772 5775 5778 5782 5785 5788 5790 5791 5793 5794 5796 5799 5804 5807 5811 5815 5817 5819 5819 5817 5814 5810 5809 5809
5632 5634 5635 5638 5641 5644 5650 5655 5658 5661 5665 5669 5673 5677 5680 5682 5683 5685 5689 5693 5697 5701 5707 5710 5714 5717 5721 5725 5730 5735 5741 5745 5749 5753 5758 5763 5767 5768 5768 5772 5775 5776 5777 5779 5784 5788 5791 5793 5794 5794 5797 5803 5807 5810 5815 5818 5819 5820 5818 5815 5812 5809 5808
5625 5627 5630 5632 5633 5636 5641 5645 5649 5654 5658 5662 5667 5670 5673 5674 5675 5678 5681 5686 5691 5697 5701 5705 5708 5712 5715 5719 5722 5727 5733 5738 5743 5748 5753 5758 5762 5763 5764 5766 5769 5770 5772 5775 5779 5784 5788 5790 5793 5794 5797 5802 5806 5810 5815 5819 5820 5819 5818 5815 5812 5809 5808
5617 5619 5623 5626 5628 5630 5632 5635 5640 5645 5650 5654 5658 5661 5665 5667 5669 5671 5674 5678 5684 5690 5693 5698 5702 5705 5709 5713 5717 5719 5724 5729 5735 5741 5747 5752 5755 5757 5759 5761 5763 5766 5769 5772 5775 5778 5782 5786 5790 5793 5796 5799 5802 5806 5812 5817 5820 5821 5819 5816 5813 5810 5808
5608 5611 5615 5619 5622 5624 5625 5628 5632 5636 5641 5646 5650 5653 5657 5660 5662 5665 5668 5672 5677 5681 5686 5691 5695 5699 5703 5708 5711 5715 5719 5723 5728 5734 5740 5746 5750 5752 5755 5757 5759 5763 5766 5767 5769 5772 5778 5784 5789 5792 5795 5797 5799 5802 5807 5812 5817 5819 5819 5817 5813 5810 5810
5599 5602 5606 5610 5613 5616 5618 5622 5626 5629 5632 5637 5642 5646 5650 5652 5655 5659 5663 5666 5670 5674 5679 5684 5688 5692 5697 5702 5707 5712 5714 5718 5723 5728 5734 5740 5745 5749 5752 5755 5758 5761 5763 5764 5765 5768 5774 5779 5784 5788 5791 5794 5798 5801 5803 5805 5809 5812 5814 5815 5813 5811 5810
5590 5593 5597 5600 5603 5607 5610 5614 5619 5622 5625 5628 5632 5636 5641 5645 5649 5653 5656 5660 5664 5668 5673 5678 5681 5686 5691 5696 5701 5706 5709 5712 5717 5722 5727 5732 5738 5745 5750 5753 5757 5759 5760 5761 5764 5766 5770 5774 5778 5782 5786 5791 5795 5796 5793 5792 5795 5800 5805 5806 5807 5809 5808
5583 5586 5588 5591 5594 5597 5601 5606 5610 5614 5617 5621 5623 5626 5631 5637 5642 5646 5649 5653 5657 5662 5666 5671 5675 5680 5684 5689 5695 5701 5705 5708 5711 5716 5721 5726 5731 5738 5743 5748 5752 5756 5758 5761 5763 5765 5767 5770 5773 5778 5782 5786 5786 5781 5779 5783 5790 5795 5796 5794 5795 5802 5808
5576 5578 5580 5583 5586 5588 5592 5596 5600 5605 5609 5614 5617 5619 5623 5628 5634 5639 5643 5646 5650 5655 5659 5664 5669 5673 5677 5683 5689 5695 5701 5706 5709 5712 5715 5719 5724 5730 5736 5742 5746 5750 5756 5761 5763 5765 5767 5768 5772 5777 5781 5779 5775 5772 5776 5785 5790 5791 5790 5788 5789 5795 5802
5570 5573 5574 5576 5579 5581 5584 5587 5592 5597 5602 5607 5611 5614 5617 5621 5626 5632 5636 5639 5643 5647 5652 5658 5663 5668 5672 5677 5684 5689 5695 5701 5705 5708 5710 5712 5717 5722 5729 5737 5742 5745 5750 5756 5759 5762 5764 5766 5771 5775 5776 5774 5773 5776 5781 5786 5787 5787 5788 5790 5788 5787 5791
5566 5567 5568 5570 5572 5574 5577 5581 5585 5589 5594 5599 5604 5608 5612 5615 5620 5624 5628 5632 5636 5639 5644 5650 5655 5661 5666 5671 5677 5682 5686 5690 5696 5701 5704 5706 5710 5713 5718 5727 5735 5741 5746 5751 5754 5757 5762 5765 5769 5771 5770 5769 5771 5776 5782 5784 5783 5784 5786 5788 5786 5782 5785
5562 5563 5563 5565 5567 5569 5571 5575 5578 5582 5586 5591 5596 5602 5606 5610 5613 5616 5619 5624 5628 5630 5635 5640 5647 5653 5660 5665 5670 5675 5678 5682 5687 5693 5696 5699 5703 5706 5711 5718 5725 5733 5742 5747 5751 5754 5758 5762 5766 5768 5768 5767 5769 5772 5777 5780 5779 5780 5783 5785 5785 5784 5786